STARLINK-32345

Last updated on Tue Oct 01 2024 00:02:04 GMT+0000 (Coordinated Universal Time)

1 60920U 24154T 24274.58334491 -.01116892 00000+0 -29654-1 0 9995 2 60920 53.1609 203.5676 0001334 82.8973 125.7503 15.40478142 6005

Satellite not in orbit